Location: Newark
(39.8500°N, 99.5772°W)
Time: 10:34:28
(UTC+00:00)

N. Korean satellite - Visible Passes

Search period start: 17 October 2019 00:00
Search period end: 27 October 2019 00:00
Orbit: 455 x 508 km, 97.2° (Epoch: 16 October)

Date Brightness Start Highest point End Pass type
(mag) Time Alt. Az. Time Alt. Az. Time Alt. Az.
18 Oct 9.6 00:32:44 10° SW 00:35:22 21° W 00:38:01 10° NW visible
18 Oct 9.0 11:58:57 10° NE 12:02:06 28° E 12:05:17 10° SSE visible
19 Oct 10.2 11:34:43 10° ENE 11:36:40 14° E 11:38:39 10° SE visible
21 Oct 10.2 00:51:28 10° WSW 00:52:58 12° W 00:54:28 10° WNW visible
21 Oct 7.8 12:16:07 10° NNE 12:19:39 49° E 12:23:13 10° S visible
22 Oct 9.1 00:24:35 10° SSW 00:27:29 26° W 00:30:26 10° NW visible
22 Oct 9.4 11:51:19 10° NE 11:54:17 23° E 11:57:15 10° SSE visible
23 Oct 10.4 11:27:34 10° ENE 11:28:48 11° E 11:30:02 10° ESE visible
25 Oct 10.0 00:42:54 10° SW 00:45:02 16° W 00:47:12 10° NW visible
25 Oct 8.3 12:08:21 10° NNE 12:11:48 38° E 12:15:16 10° SSE visible
26 Oct 8.6 00:16:28 10° SSW 00:19:35 33° W 00:22:45 10° NNW visible
26 Oct 9.8 11:43:43 10° NE 11:46:23 19° E 11:49:04 10° SE visible
